PBB17 EDOY-EDOY

Flight info

Callsign PBB17
Flight time N/A
Altitude 2500
Route VFR POLICE
Aircraft EC35/L-S/G

Departure

Time 2026-04-23 19:43
Airport Ahrensfelde Heliport (EDOY)

Arrival

Time N/A
Airport Ahrensfelde Heliport (EDOY)
Time Latitude Longitude Altitude Speed Heading
2026-04-23 19:43 52.60330 13.58524 746 ft 75 kts 97°
2026-04-23 19:43 52.60055 13.59315 1083 ft 83 kts 137°
2026-04-23 19:43 52.59543 13.59837 1388 ft 94 kts 155°
2026-04-23 19:44 52.58874 13.60416 1589 ft 126 kts 156°
2026-04-23 19:44 52.57966 13.61143 1597 ft 161 kts 157°
2026-04-23 19:44 52.56914 13.61946 1529 ft 168 kts 158°
2026-04-23 19:44 52.55849 13.62730 1510 ft 168 kts 159°
2026-04-23 19:45 52.54779 13.63491 1487 ft 168 kts 160°
2026-04-23 19:45 52.53702 13.64228 1472 ft 168 kts 160°
2026-04-23 19:45 52.52610 13.64897 1469 ft 168 kts 164°
2026-04-23 19:45 52.51487 13.65426 1471 ft 168 kts 168°
2026-04-23 19:46 52.50344 13.65807 1483 ft 168 kts 173°
2026-04-23 19:46 52.49186 13.66041 1482 ft 168 kts 178°
2026-04-23 19:46 52.48020 13.66127 1483 ft 168 kts 183°
2026-04-23 19:46 52.46851 13.66065 1497 ft 168 kts 189°
2026-04-23 19:47 52.46082 13.65937 1486 ft 168 kts 191°
2026-04-23 19:47 52.44527 13.65641 1464 ft 168 kts 192°
2026-04-23 19:47 52.43366 13.65393 1452 ft 168 kts 192°
2026-04-23 19:47 52.42207 13.65124 1432 ft 168 kts 193°
2026-04-23 19:48 52.41058 13.64812 1440 ft 164 kts 199°
2026-04-23 19:48 52.40125 13.63856 1497 ft 157 kts 249°
2026-04-23 19:48 52.39917 13.62161 1399 ft 146 kts 263°
2026-04-23 19:48 52.39635 13.60675 1250 ft 130 kts 256°
2026-04-23 19:49 52.39292 13.59374 1142 ft 120 kts 254°
2026-04-23 19:49 52.39031 13.58146 1031 ft 110 kts 258°
2026-04-23 19:49 52.38777 13.56999 838 ft 105 kts 251°
2026-04-23 19:49 52.38513 13.55900 705 ft 103 kts 254°
2026-04-23 19:50 52.38262 13.54814 557 ft 103 kts 251°
2026-04-23 19:50 52.38000 13.53730 418 ft 102 kts 252°
2026-04-23 19:50 52.37889 13.52658 345 ft 96 kts 304°
2026-04-23 19:50 52.38524 13.52743 394 ft 114 kts 43°
2026-04-23 19:51 52.38851 13.53914 550 ft 125 kts 100°
2026-04-23 19:51 52.38142 13.54381 485 ft 125 kts 242°
2026-04-23 19:51 52.37862 13.53108 231 ft 112 kts 252°
2026-04-23 19:51 52.37593 13.51973 194 ft 103 kts 251°
2026-04-23 19:52 52.37428 13.51286 239 ft 94 kts 251°
2026-04-23 19:52 52.37121 13.49995 276 ft 91 kts 252°
2026-04-23 19:52 52.36892 13.49009 307 ft 100 kts 251°
2026-04-23 19:52 52.36590 13.47773 528 ft 135 kts 251°
2026-04-23 19:53 52.36197 13.46203 638 ft 161 kts 249°
2026-04-23 19:53 52.35779 13.44466 841 ft 165 kts 251°
2026-04-23 19:53 52.35367 13.42718 1044 ft 165 kts 252°
2026-04-23 19:53 52.34947 13.40975 1239 ft 164 kts 252°
2026-04-23 19:54 52.34520 13.39249 1434 ft 163 kts 253°
2026-04-23 19:54 52.34095 13.37545 1629 ft 162 kts 253°
2026-04-23 19:54 52.33666 13.35837 1814 ft 162 kts 253°
2026-04-23 19:54 52.33234 13.34119 1941 ft 165 kts 253°
2026-04-23 19:55 52.32795 13.32370 2032 ft 167 kts 253°
2026-04-23 19:55 52.32353 13.30601 2114 ft 168 kts 253°
2026-04-23 19:55 52.32238 13.28813 2170 ft 160 kts 284°
2026-04-23 19:55 52.32619 13.27050 2093 ft 167 kts 293°
2026-04-23 19:56 52.33018 13.25262 1994 ft 167 kts 292°
2026-04-23 19:56 52.33400 13.23463 1912 ft 168 kts 291°
2026-04-23 19:56 52.33778 13.21658 1922 ft 168 kts 291°
2026-04-23 19:56 52.34152 13.19858 1935 ft 168 kts 291°
2026-04-23 19:57 52.34400 13.18661 1942 ft 168 kts 291°
2026-04-23 19:57 52.34772 13.16854 1952 ft 168 kts 291°
2026-04-23 19:57 52.35144 13.15047 1968 ft 168 kts 291°
2026-04-23 19:57 52.35514 13.13239 1984 ft 168 kts 291°
2026-04-23 19:58 52.35884 13.11430 2006 ft 168 kts 291°
2026-04-23 19:58 52.36243 13.09665 2184 ft 161 kts 291°
2026-04-23 19:58 52.36592 13.07938 2366 ft 159 kts 291°
2026-04-23 19:58 52.36935 13.06228 2544 ft 157 kts 291°
2026-04-23 19:59 52.37273 13.04533 2715 ft 156 kts 291°
2026-04-23 19:59 52.37594 13.02839 2881 ft 155 kts 290°
2026-04-23 19:59 52.37895 13.01139 3047 ft 156 kts 289°
2026-04-23 19:59 52.38181 12.99425 3207 ft 156 kts 288°
2026-04-23 20:00 52.38463 12.97713 3364 ft 156 kts 288°
2026-04-23 20:00 52.38743 12.96004 3511 ft 156 kts 288°
2026-04-23 20:00 52.39024 12.94291 3654 ft 156 kts 288°
2026-04-23 20:00 52.39303 12.92582 3793 ft 155 kts 288°
2026-04-23 20:01 52.39579 12.90877 3932 ft 154 kts 288°
2026-04-23 20:01 52.39851 12.89188 4069 ft 153 kts 288°
2026-04-23 20:01 52.40122 12.87501 4204 ft 153 kts 288°
2026-04-23 20:01 52.40392 12.85818 4331 ft 152 kts 288°
2026-04-23 20:02 52.40664 12.84118 4363 ft 158 kts 288°
2026-04-23 20:02 52.40949 12.82345 4318 ft 163 kts 288°
2026-04-23 20:02 52.41241 12.80536 4265 ft 165 kts 288°
2026-04-23 20:02 52.41534 12.78719 4247 ft 164 kts 288°
2026-04-23 20:03 52.41823 12.76915 4236 ft 164 kts 288°
2026-04-23 20:03 52.42114 12.75105 4222 ft 164 kts 288°
2026-04-23 20:03 52.42403 12.73303 4216 ft 163 kts 288°
2026-04-23 20:03 52.42690 12.71505 4203 ft 163 kts 288°
2026-04-23 20:04 52.42969 12.69715 4200 ft 162 kts 287°
2026-04-23 20:04 52.43233 12.67918 4190 ft 162 kts 286°
2026-04-23 20:04 52.43480 12.66115 4181 ft 162 kts 285°
2026-04-23 20:04 52.43708 12.64309 4170 ft 162 kts 285°
2026-04-23 20:05 52.43917 12.62499 4165 ft 162 kts 284°
2026-04-23 20:05 52.44110 12.60678 4160 ft 162 kts 283°
2026-04-23 20:05 52.44288 12.58850 4153 ft 162 kts 282°
2026-04-23 20:05 52.44449 12.57016 4146 ft 163 kts 281°
2026-04-23 20:06 52.44593 12.55181 4136 ft 162 kts 280°
2026-04-23 20:06 52.44727 12.53363 4131 ft 163 kts 280°
2026-04-23 20:06 52.44860 12.51534 4210 ft 160 kts 280°
2026-04-23 20:06 52.44990 12.49725 4249 ft 160 kts 280°
2026-04-23 20:07 52.45122 12.47898 4252 ft 162 kts 280°
2026-04-23 20:07 52.45254 12.46055 4249 ft 163 kts 280°
2026-04-23 20:07 52.45388 12.44208 4255 ft 163 kts 280°
2026-04-23 20:07 52.45522 12.42356 4254 ft 163 kts 280°
2026-04-23 20:08 52.45654 12.40505 4254 ft 163 kts 280°
2026-04-23 20:08 52.45786 12.38652 4253 ft 163 kts 280°
2026-04-23 20:08 52.45917 12.36804 4255 ft 163 kts 280°
2026-04-23 20:08 52.46050 12.34956 4251 ft 163 kts 280°
2026-04-23 20:09 52.46183 12.33107 4256 ft 163 kts 280°
2026-04-23 20:09 52.46314 12.31254 4255 ft 164 kts 280°
2026-04-23 20:09 52.46526 12.29451 4244 ft 159 kts 291°
2026-04-23 20:09 52.47050 12.27887 4253 ft 155 kts 309°
2026-04-23 20:10 52.47774 12.26563 4255 ft 157 kts 313°
2026-04-23 20:10 52.48505 12.25212 4257 ft 159 kts 312°
2026-04-23 20:10 52.49232 12.23827 4254 ft 160 kts 311°
2026-04-23 20:10 52.49948 12.22419 4250 ft 161 kts 310°
2026-04-23 20:11 52.50652 12.20987 4259 ft 161 kts 309°
2026-04-23 20:11 52.51341 12.19537 4250 ft 162 kts 309°
2026-04-23 20:11 52.52015 12.18067 4259 ft 160 kts 308°
2026-04-23 20:11 52.52661 12.16581 4254 ft 160 kts 306°
2026-04-23 20:12 52.53277 12.15068 4246 ft 160 kts 305°
2026-04-23 20:12 52.53861 12.13525 4262 ft 159 kts 303°
2026-04-23 20:12 52.54518 12.12180 4265 ft 143 kts 329°
2026-04-23 20:12 52.55403 12.11307 4264 ft 149 kts 327°
2026-04-23 20:13 52.56098 12.10066 4263 ft 148 kts 303°
2026-04-23 20:13 52.56618 12.08535 4262 ft 155 kts 301°
2026-04-23 20:13 52.57127 12.06944 4259 ft 158 kts 299°
2026-04-23 20:13 52.57613 12.05317 4256 ft 158 kts 298°
2026-04-23 20:14 52.58070 12.03668 4258 ft 159 kts 296°
2026-04-23 20:14 52.58501 12.01994 4248 ft 160 kts 295°
2026-04-23 20:14 52.58904 12.00300 4262 ft 158 kts 294°
2026-04-23 20:14 52.59277 11.98593 4259 ft 159 kts 292°
2026-04-23 20:15 52.59622 11.96868 4255 ft 160 kts 291°
2026-04-23 20:15 52.59939 11.95127 4263 ft 158 kts 289°
2026-04-23 20:15 52.60225 11.93377 4264 ft 159 kts 288°
2026-04-23 20:15 52.60493 11.91603 4256 ft 160 kts 287°
2026-04-23 20:16 52.60749 11.89819 4263 ft 160 kts 287°
2026-04-23 20:16 52.60994 11.88027 4260 ft 160 kts 286°
2026-04-23 20:16 52.61226 11.86233 4264 ft 160 kts 285°
2026-04-23 20:16 52.61447 11.84433 4259 ft 160 kts 285°
2026-04-23 20:17 52.61872 11.82858 4262 ft 146 kts 317°
2026-04-23 20:17 52.62796 11.82381 4242 ft 142 kts
2026-04-23 20:17 52.63599 11.83238 4221 ft 143 kts 50°
2026-04-23 20:17 52.63749 11.84837 4212 ft 148 kts 99°
2026-04-23 20:18 52.63164 11.86191 4245 ft 152 kts 143°
2026-04-23 20:18 52.62156 11.86704 4258 ft 156 kts 184°
2026-04-23 20:18 52.61163 11.86098 4278 ft 151 kts 223°
2026-04-23 20:18 52.60638 11.84646 4203 ft 151 kts 263°
2026-04-23 20:19 52.60822 11.83042 4219 ft 145 kts 304°
2026-04-23 20:19 52.61593 11.82109 4230 ft 141 kts 342°
2026-04-23 20:19 52.62531 11.82288 4258 ft 139 kts 21°
2026-04-23 20:19 52.63172 11.83463 4239 ft 143 kts 60°
2026-04-23 20:20 52.63214 11.85095 4226 ft 148 kts 101°
2026-04-23 20:20 52.62815 11.86722 4236 ft 163 kts 108°
2026-04-23 20:20 52.62403 11.88445 4329 ft 163 kts 107°
2026-04-23 20:20 52.61989 11.90200 4352 ft 166 kts 107°
2026-04-23 20:21 52.61301 11.91514 4345 ft 154 kts 167°
2026-04-23 20:21 52.60416 11.90879 4390 ft 144 kts 246°
2026-04-23 20:21 52.60558 11.89355 4317 ft 145 kts 300°
2026-04-23 20:21 52.61029 11.87824 4351 ft 152 kts 300°
2026-04-23 20:22 52.61227 11.86091 4067 ft 163 kts 278°
2026-04-23 20:22 52.61359 11.84310 4175 ft 145 kts 293°
2026-04-23 20:22 52.62081 11.83281 4163 ft 138 kts 344°
2026-04-23 20:22 52.62973 11.83706 4138 ft 141 kts 37°
2026-04-23 20:23 52.63296 11.85205 4114 ft 146 kts 90°
2026-04-23 20:23 52.62789 11.86642 4144 ft 153 kts 133°
2026-04-23 20:23 52.62002 11.87938 4150 ft 166 kts 134°
2026-04-23 20:23 52.61216 11.89323 4168 ft 159 kts 118°
2026-04-23 20:24 52.61373 11.90921 4109 ft 153 kts 35°
2026-04-23 20:24 52.62197 11.90634 4092 ft 143 kts 290°
2026-04-23 20:24 52.61997 11.89037 4163 ft 148 kts 259°
2026-04-23 20:24 52.61713 11.87475 4034 ft 125 kts 259°
2026-04-23 20:25 52.61457 11.86267 4030 ft 103 kts 258°
2026-04-23 20:25 52.61203 11.85157 4022 ft 104 kts 257°
2026-04-23 20:25 52.60942 11.84074 4030 ft 103 kts 256°
2026-04-23 20:25 52.60666 11.82991 4038 ft 103 kts 256°
2026-04-23 20:26 52.60378 11.81917 4051 ft 103 kts 255°
2026-04-23 20:26 52.60081 11.80852 4060 ft 102 kts 254°
2026-04-23 20:26 52.59775 11.79795 4066 ft 102 kts 253°
2026-04-23 20:26 52.59459 11.78748 4077 ft 102 kts 252°
2026-04-23 20:27 52.59130 11.77708 4081 ft 103 kts 251°
2026-04-23 20:27 52.58791 11.76677 4098 ft 103 kts 251°
2026-04-23 20:27 52.58442 11.75653 4114 ft 103 kts 250°
2026-04-23 20:27 52.58087 11.74637 4118 ft 103 kts 249°
2026-04-23 20:28 52.57722 11.73629 4129 ft 103 kts 248°
2026-04-23 20:28 52.57346 11.72628 4135 ft 103 kts 248°
2026-04-23 20:28 52.56958 11.71634 4147 ft 103 kts 246°
2026-04-23 20:28 52.56562 11.70647 4153 ft 104 kts 246°
2026-04-23 20:29 52.56154 11.69665 4161 ft 104 kts 245°
2026-04-23 20:29 52.55740 11.68691 4149 ft 105 kts 244°
2026-04-23 20:29 52.55308 11.67693 4093 ft 109 kts 243°
2026-04-23 20:29 52.54854 11.66651 3988 ft 115 kts 243°
2026-04-23 20:30 52.54379 11.65571 3872 ft 119 kts 242°
2026-04-23 20:30 52.53410 11.63312 3624 ft 122 kts 242°
2026-04-23 20:30 52.52927 11.62163 3490 ft 123 kts 243°
2026-04-23 20:31 52.52445 11.60999 3340 ft 124 kts 243°
2026-04-23 20:31 52.51966 11.59823 3181 ft 124 kts 243°
2026-04-23 20:31 52.51487 11.58633 3057 ft 124 kts 243°
2026-04-23 20:31 52.51021 11.57470 3045 ft 123 kts 244°
2026-04-23 20:32 52.50546 11.56261 3027 ft 128 kts 244°
2026-04-23 20:32 52.50077 11.55026 3033 ft 130 kts 245°
2026-04-23 20:32 52.49617 11.53753 3056 ft 129 kts 246°
2026-04-23 20:32 52.49176 11.52475 3078 ft 129 kts 248°
2026-04-23 20:33 52.48751 11.51176 3087 ft 129 kts 249°
2026-04-23 20:33 52.48342 11.49859 3097 ft 130 kts 250°
2026-04-23 20:33 52.47951 11.48526 3106 ft 130 kts 251°
2026-04-23 20:33 52.47575 11.47177 3112 ft 130 kts 252°
2026-04-23 20:34 52.47218 11.45814 3116 ft 130 kts 253°
2026-04-23 20:34 52.46879 11.44447 3126 ft 129 kts 255°
2026-04-23 20:34 52.46560 11.43069 3136 ft 129 kts 256°
2026-04-23 20:34 52.46260 11.41682 3155 ft 129 kts 257°
2026-04-23 20:35 52.45972 11.40284 3150 ft 129 kts 258°
2026-04-23 20:35 52.45687 11.38888 3147 ft 129 kts 258°
2026-04-23 20:35 52.45406 11.37492 3151 ft 129 kts 258°
2026-04-23 20:35 52.45129 11.36095 3155 ft 129 kts 259°
2026-04-23 20:36 52.44854 11.34698 3147 ft 127 kts 259°
2026-04-23 20:36 52.44469 11.33421 3106 ft 125 kts 246°
2026-04-23 20:36 52.44054 11.32166 3119 ft 127 kts 250°
2026-04-23 20:36 52.43648 11.30857 3097 ft 131 kts 250°
2026-04-23 20:37 52.43238 11.29515 3056 ft 132 kts 251°
2026-04-23 20:37 52.42828 11.28156 3009 ft 133 kts 251°
2026-04-23 20:37 52.42409 11.26822 3008 ft 132 kts 250°
2026-04-23 20:37 52.41992 11.25483 3010 ft 132 kts 250°
2026-04-23 20:38 52.41578 11.24141 3001 ft 132 kts 250°
2026-04-23 20:38 52.41171 11.22806 3005 ft 131 kts 251°
2026-04-23 20:38 52.40767 11.21473 3000 ft 131 kts 251°
2026-04-23 20:38 52.40367 11.20137 3001 ft 131 kts 251°
2026-04-23 20:39 52.39971 11.18796 2997 ft 131 kts 252°
2026-04-23 20:39 52.39577 11.17449 2994 ft 131 kts 252°
2026-04-23 20:39 52.39188 11.16106 2993 ft 131 kts 252°
2026-04-23 20:39 52.38802 11.14759 2993 ft 131 kts 252°
2026-04-23 20:40 52.38420 11.13407 2995 ft 131 kts 253°
2026-04-23 20:40 52.38039 11.12055 2989 ft 130 kts 253°
2026-04-23 20:40 52.37671 11.10711 2996 ft 129 kts 254°
2026-04-23 20:40 52.37309 11.09362 3001 ft 129 kts 255°
2026-04-23 20:41 52.36954 11.08007 3002 ft 130 kts 255°
2026-04-23 20:41 52.36600 11.06649 3027 ft 134 kts 255°
2026-04-23 20:41 52.36224 11.05087 3049 ft 158 kts 256°
2026-04-23 20:41 52.35843 11.03331 3063 ft 167 kts 257°
2026-04-23 20:42 52.35491 11.01507 3065 ft 168 kts 259°
2026-04-23 20:42 52.35157 10.99671 3070 ft 168 kts 260°
2026-04-23 20:42 52.34848 10.97825 3067 ft 168 kts 261°
2026-04-23 20:42 52.34552 10.96000 3063 ft 168 kts 261°
2026-04-23 20:43 52.34271 10.94143 3065 ft 168 kts 262°
2026-04-23 20:43 52.34004 10.92280 3089 ft 168 kts 263°
2026-04-23 20:43 52.33741 10.90414 3116 ft 168 kts 263°
2026-04-23 20:43 52.33566 10.88532 3175 ft 167 kts 271°
2026-04-23 20:44 52.33474 10.86628 3055 ft 168 kts 271°
2026-04-23 20:44 52.33370 10.84724 2928 ft 168 kts 270°
2026-04-23 20:44 52.33254 10.82818 2840 ft 168 kts 270°
2026-04-23 20:44 52.33146 10.80914 2841 ft 168 kts 271°
2026-04-23 20:45 52.33056 10.79003 2830 ft 168 kts 272°
2026-04-23 20:45 52.32973 10.77094 2756 ft 168 kts 272°
2026-04-23 20:45 52.32895 10.75184 2641 ft 168 kts 272°
2026-04-23 20:45 52.32843 10.73896 2512 ft 168 kts 272°
2026-04-23 20:46 52.32769 10.71988 2315 ft 168 kts 272°
2026-04-23 20:46 52.32696 10.70107 2062 ft 160 kts 271°
2026-04-23 20:46 52.32605 10.68375 1848 ft 145 kts 270°
2026-04-23 20:46 52.32506 10.66818 1616 ft 129 kts 270°
2026-04-23 20:47 52.32429 10.65448 1462 ft 116 kts 271°
2026-04-23 20:47 52.32371 10.64149 1283 ft 114 kts 271°
2026-04-23 20:47 52.32315 10.62845 1067 ft 116 kts 269°
2026-04-23 20:47 52.32252 10.61516 852 ft 119 kts 268°
2026-04-23 20:48 52.32173 10.60160 666 ft 119 kts 267°
2026-04-23 20:48 52.32098 10.58867 571 ft 112 kts 267°
2026-04-23 20:48 52.32031 10.57659 446 ft 101 kts 267°
2026-04-23 20:48 52.31967 10.56538 370 ft 100 kts 268°
2026-04-23 20:49 52.31987 10.55405 528 ft 97 kts 304°
2026-04-23 20:49 52.32688 10.55291 522 ft 112 kts 17°
2026-04-23 20:49 52.33413 10.55828 665 ft 115 kts 19°
2026-04-23 20:49 52.34120 10.56367 874 ft 112 kts 19°
2026-04-23 20:50 52.34813 10.56912 1109 ft 109 kts 19°
2026-04-23 20:50 52.35480 10.57448 1353 ft 105 kts 19°
2026-04-23 20:50 52.36123 10.57984 1569 ft 104 kts 18°
2026-04-23 20:50 52.36797 10.58544 1665 ft 113 kts 18°
2026-04-23 20:51 52.37534 10.59096 1720 ft 119 kts 15°
2026-04-23 20:51 52.38330 10.59507 1756 ft 120 kts
2026-04-23 20:51 52.39158 10.59513 1795 ft 119 kts 347°
2026-04-23 20:51 52.39940 10.59098 1822 ft 118 kts 331°
2026-04-23 20:52 52.40668 10.58444 1825 ft 121 kts 329°
2026-04-23 20:52 52.41406 10.57745 1804 ft 123 kts 328°
2026-04-23 20:52 52.42142 10.57020 1795 ft 124 kts 327°
2026-04-23 20:52 52.42874 10.56276 1776 ft 124 kts 326°
2026-04-23 20:53 52.43603 10.55507 1756 ft 125 kts 325°
2026-04-23 20:53 52.44323 10.54719 1733 ft 125 kts 324°
2026-04-23 20:53 52.45039 10.53907 1716 ft 125 kts 324°
2026-04-23 20:53 52.45755 10.53063 1635 ft 128 kts 323°
2026-04-23 20:54 52.46475 10.52184 1462 ft 125 kts 322°
2026-04-23 20:54 52.47146 10.51393 1231 ft 114 kts 323°
2026-04-23 20:54 52.47821 10.50727 1039 ft 110 kts 328°
2026-04-23 20:54 52.48483 10.50389 788 ft 85 kts
2026-04-23 20:55 52.48902 10.50714 662 ft 56 kts 29°
2026-04-23 20:55 52.49237 10.51021 476 ft 56 kts
2026-04-23 20:55 52.49492 10.51028 308 ft 19 kts 360°
2026-04-23 20:55 52.49557 10.51086 227 ft 5 kts 180°
2026-04-23 20:56 52.49554 10.51087 218 ft 0 kts 182°